Regional Weather Roundup
Issued by NWS

Home | Current Version | Previous Version | Text Only | Print | Product List | Glossary Off
Versions: 1 2 3 4 5 6 7 8 9 10 11 12 13 14 15 16 17 18 19 20 21 22 23 24 25 26 27 28 29 30 31 32 33 34 35 36 37 38 39 40 41 42 43 44 45 46 47 48 49 50

000
ASUS45 KTFX 221110
RWRMT
MONTANA REGIONAL WEATHER ROUNDUP
NATIONAL WEATHER SERVICE GREAT FALLS MT
500 AM MDT MON MAY 22 2017

NOTE: "FAIR" INDICATES FEW OR NO CLOUDS BELOW 12000 FEET WITH NO
SIGNIFICANT WEATHER AND/OR OBSTRUCTIONS TO VISIBILITY.

MTZ001>007-043-221200-
WEST OF THE DIVIDE

CITY           SKY/WX    TMP DP  RH WIND       PRES   REMARKS
KALISPELL      CLEAR     41  41 100 CALM      30.20R
MISSOULA       PTCLDY    45  40  82 CALM      30.25R
BUTTE          CLEAR     35  30  82 CALM      30.29S
MULLAN PASS    CLEAR     48  35  60 NW7       30.30S
ANACONDA         N/A     43  32  65 CALM      30.26S
DEER LODGE       N/A     39  34  81 CALM      30.28F
EUREKA           N/A     41  37  87 CALM      30.22R
HAMILTON         N/A     48  36  61 S10       30.25S
LIBBY            N/A     41  39  93 CALM      30.21R
PLAINS           N/A     43  37  79 CALM      30.21R
RONAN            N/A     43  38  82 CALM      30.23R
$$

MTZ008-052>055-221200-
SOUTHWEST MONTANA

CITY           SKY/WX    TMP DP  RH WIND       PRES   REMARKS
BOZEMAN        PTCLDY    41  37  86 E5        30.23S
DILLON         CLEAR     43  32  65 SW14      30.26S
W YELLOWSTONE  CLOUDY    28  27  93 SW3       30.32F
ENNIS          CLEAR     37  32  81 N6        30.31S
$$

MTZ009-010-012-014-046-048-049-054-221200-
EAST SLOPES AND CENTRAL MONTANA

CITY           SKY/WX    TMP DP  RH WIND       PRES   REMARKS
CUT BANK       CLOUDY    48  37  65 W12       30.18S
GREAT FALLS    MOCLDY    49  42  77 SW7       30.18S
HELENA         CLEAR     48  39  71 SW5       30.19S
AUGUSTA        CLOUDY    49  39  67 N9        30.22R
BOWMANS CRNR   MOCLDY    49  37  65 N6        30.20R
CHOTEAU          N/A     50  37  62 W5        30.22S
FAIRFIELD      MOCLDY    45  40  80 NW8       30.20R
POWER          MOCLDY    48  39  72 CALM      30.18R
RAYNESFORD     MOCLDY    51  40  65 W3        30.18S
ULM            MOCLDY    47  44  88 S5        30.19R
$$

MTZ011-013-016-021-045-047-050-051-221200-
NORTH CENTRAL MONTANA

CITY           SKY/WX    TMP DP  RH WIND       PRES   REMARKS
HAVRE          CLOUDY    45  39  79 VRB3      30.11R
LEWISTOWN      CLOUDY    48  38  68 W7        30.14S
N BAR RANCH    CLOUDY    48  37  66 NW10      30.15S
CHINOOK          N/A     43  39  87 CALM      30.11R
DENTON         MOCLDY    52  39  60 W15       30.10S
FORT BENTON      N/A     55  37  50 MISG      30.13F
GEYSER         CLOUDY    56  36  47 W16       30.16R
JUDITH GAP     CLOUDY    53  33  46 NW24G31   30.14F
STANFORD       MOCLDY    54  35  48 NW16      30.16S
WINIFRED       MOCLDY    50  40  68 W7        30.11F
$$

MTZ017>020-022>027-061-062-221200-
NORTHEAST MONTANA

CITY           SKY/WX    TMP DP  RH WIND       PRES   REMARKS
GLASGOW        LGT RAIN  49  42  77 MISG      30.09R
JORDAN           N/A     46  43  89 W8        30.05R
WOLF POINT     CLOUDY    43  40  89 CALM      30.02R
MALTA          CLOUDY    48  43  81 VRB6      30.09R
PLENTYWOOD       N/A     46  43  87 NW13      29.99S
POPLAR           N/A     43  39  87 W3        30.02R
SCOBEY           N/A     40  34  79 CALM      30.01
$$

MTZ028>42-056>058-221200-
SOUTHCENTRAL AND SOUTHEAST MONTANA

CITY           SKY/WX    TMP DP  RH WIND       PRES   REMARKS
BAKER          CLEAR     42  41  96 CALM      30.01S
BILLINGS       CLOUDY    53  39  59 W5        30.11S
LIVINGSTON     MOCLDY    44  38  79 NW12      30.19S
MILES CITY     PTCLDY    46  43  89 SW7       30.03S
BIG TIMBER     CLOUDY    54  34  47 W13       30.20R
EKALAKA          N/A     43  39  85 SW9       29.99
FORSYTH          N/A     48  45  87 W9        30.05S
LAUREL           N/A     52  36  54 CALM      30.09F
ROUNDUP          N/A     47  37  68 W1        30.02S
$$

REGIONAL REPORTS...DAKOTAS

CITY           SKY/WX    TMP DP  RH WIND       PRES   REMARKS
WILLISTON      CLOUDY    49  39  68 N14       29.97R
MINOT          CLOUDY    47  40  76 N6        29.92S
DICKINSON      MOCLDY    45  40  82 W12       29.93S
BEACH          CLOUDY    45  45 100 W8        30.02F
TIOGA          CLOUDY    46  41  81 E8        29.96S
WATFORD CITY     N/A     48  41  76 NW9       29.95R
BISMARCK       CLOUDY    45  38  76 NE3       29.89S
GRAND FORKS    CLOUDY    47  44  90 W10       29.83F
FARGO          CLOUDY    45  42  89 NW9       29.85F
BUFFALO SD       N/A     45  44  97 W10       29.93F
RAPID CITY     CLOUDY    48  41  76 N17G35    30.03R
$$

REGIONAL REPORTS...WYOMING/IDAHO/WASHINGTON

CITY           SKY/WX    TMP DP  RH WIND       PRES   REMARKS
GILLETTE       CLOUDY    43  41  93 W3        30.09F
SHERIDAN       CLOUDY    46  41  82 NW3       30.12R
BUFFALO WY     CLOUDY    47  36  65 N12G21    30.14F
CODY           PTCLDY    50  33  52 SW5       30.19F
YELLOWSTONE LA   N/A     27  26  96 CALM      30.35F
IDAHO FALLS    CLEAR     39  32  76 NW3       30.27R
SALMON         CLOUDY    39  36  87 CALM      30.28R
BOISE          PTCLDY    55  46  71 SE8       30.19R
SPOKANE        MOCLDY    58  45  62 S6        30.18F
$$

REGIONAL REPORTS...ALBERTA

CITY           SKY/WX    TMP DP  RH WIND       PRES   REMARKS
EDMONTON       CLOUDY    54  39  58 SE6       30.14S
CALGARY        CLOUDY    55  34  44 NW5       30.18R
LETHBRIDGE     MOCLDY    46  39  76 W8        30.16R
MEDICINE HAT   CLOUDY    57  39  51 NW6       30.11R
WATERTON GATE    N/A     43  34  70 SW7         N/A
CARDSTON         N/A     45  34  65 SW9         N/A
MILK RIVER       N/A     50  39  66 W13         N/A
$$

REGIONAL REPORTS...SASKATCHEWAN

CITY           SKY/WX    TMP DP  RH WIND       PRES   REMARKS
SWIFT CURRENT  CLEAR     43  37  81 N8        30.11R
REGINA         PTCLDY    45  41  87 N9        30.02R
SASKATOON      PTCLDY    39  37  93 N5        30.12R
CYPRESS HILLS    N/A     45  32  61 NW2         N/A
VAL MARIE        N/A     43  39  87 NW6         N/A
ROCKGLEN         N/A     43  39  87 NW12        N/A
$$



USA.gov is the U.S. government's official web portal to all federal, state and local government web resources and services.